FW0878 Weather Reports


Display with metric or nautical units.
time (UTC)temp
F
wind
direction
speed
MPH
gust
MPH
rain 1hr
in
rain 24hr
in
rain mn
in
humidity
%
barometer
mb
20260904211807 57 21 3.0 12.0 0.03 0.25 0.25 86 1004.0
20260904211306 56 317 5.0 12.0 0.03 0.25 0.25 87 1003.9
20260904210806 56 43 3.0 12.0 0.04 0.25 0.25 87 1003.8
20260904205806 57 320 5.0 10.0 0.04 0.25 0.25 87 1004.1
20260904205306 57 88 6.0 15.0 0.04 0.25 0.25 87 1004.1
20260904204806 57 273 7.0 13.0 0.04 0.24 0.24 86 1004.5
20260904204307 57 19 6.0 12.0 0.03 0.23 0.23 86 1004.7
20260904203806 57 341 6.0 13.0 0.03 0.23 0.23 86 1005.1
20260904203307 57 46 5.0 13.0 0.02 0.22 0.22 86 1005.6
20260904202807 57 292 3.0 12.0 0.02 0.22 0.22 86 1005.4
20260904202307 57 271 5.0 12.0 0.02 0.22 0.22 86 1005.7
20260904201806 57 344 4.0 12.0 0.02 0.22 0.22 86 1005.7
20260904200807 58 288 3.0 9.0 0.01 0.21 0.21 85 1005.9
20260904200306 57 0 3.0 10.0 0.01 0.21 0.21 85 1005.9
20260904195307 57 333 3.0 9.0 0.01 0.21 0.21 85 1005.7
20260904194806 57 42 3.0 12.0 0.00 0.20 0.20 84 1005.8
20260904194306 57 340 5.0 10.0 0.00 0.20 0.20 84 1005.5
20260904193807 57 2 3.0 8.0 0.00 0.20 0.20 84 1005.7
20260904193307 57 250 4.0 8.0 0.00 0.20 0.20 85 1005.5
20260904192806 57 90 3.0 10.0 0.00 0.20 0.20 85 1005.4
20260904192306 57 316 3.0 7.0 0.00 0.20 0.20 85 1005.5
20260904191806 57 293 2.0 8.0 0.00 0.20 0.20 86 1005.8
20260904191307 57 341 4.0 8.0 0.00 0.20 0.20 86 1005.9
20260904190807 57 21 3.0 7.0 0.01 0.20 0.20 86 1006.2
20260904190307 57 248 2.0 7.0 0.03 0.20 0.20 85 1006.5
20260904185808 57 358 2.0 10.0 0.04 0.20 0.20 85 1006.6
20260904185306 57 66 3.0 8.0 0.06 0.20 0.20 85 1006.3
20260904184807 57 226 3.0 13.0 0.06 0.20 0.20 85 1006.3
20260904184307 57 43 3.0 9.0 0.06 0.20 0.20 86 1006.2
20260904183807 57 22 6.0 8.0 0.06 0.20 0.20 86 1006.4
20260904183307 57 317 3.0 9.0 0.06 0.20 0.20 86 1006.5
20260904182807 57 20 5.0 13.0 0.06 0.20 0.20 87 1006.3
20260904182306 56 272 5.0 15.0 0.06 0.20 0.20 87 1006.4
20260904181306 57 226 5.0 14.0 0.06 0.20 0.20 88 1006.5
20260904175807 57 315 3.0 12.0 0.03 0.16 0.16 86 1006.6
20260904175306 57 339 5.0 12.0 0.02 0.14 0.14 85 1006.6
20260904174806 57 338 4.0 9.0 0.03 0.14 0.14 86 1006.5
20260904174307 57 316 4.0 13.0 0.03 0.14 0.14 86 1005.9
20260904173806 57 0 6.0 13.0 0.03 0.14 0.14 86 1006.0
20260904173307 57 20 8.0 14.0 0.03 0.14 0.14 86 1005.7
20260904172808 57 2 6.0 14.0 0.03 0.14 0.14 86 1005.6
20260904172306 57 341 6.0 13.0 0.03 0.14 0.14 86 1005.6
20260904171808 57 316 5.0 14.0 0.03 0.14 0.14 86 1006.0
20260904171306 57 315 6.0 16.0 0.03 0.14 0.14 87 1006.4
20260904170806 57 21 6.0 12.0 0.04 0.14 0.14 87 1006.4
20260904170306 57 182 5.0 15.0 0.04 0.14 0.14 87 1006.5
20260904165806 57 68 6.0 14.0 0.03 0.13 0.13 87 1006.8
20260904165307 57 267 6.0 14.0 0.03 0.12 0.12 86 1007.2
20260904164307 58 225 6.0 16.0 0.02 0.11 0.11 85 1007.7
20260904163806 57 294 6.0 14.0 0.02 0.11 0.11 85 1007.6
20260904163307 57 294 5.0 14.0 0.03 0.11 0.11 86 1007.9
20260904162807 57 314 5.0 13.0 0.04 0.11 0.11 86 1007.4
20260904162306 57 0 7.0 12.0 0.05 0.11 0.11 86 1007.1
20260904161806 57 1 5.0 10.0 0.06 0.11 0.11 86 1007.4
20260904161306 57 339 5.0 13.0 0.06 0.11 0.11 86 1007.7
20260904160807 57 338 6.0 14.0 0.05 0.10 0.10 85 1007.9
20260904160307 57 271 7.0 14.0 0.05 0.10 0.10 85 1008.1
20260904154806 57 229 5.0 17.0 0.04 0.09 0.09 84 1008.4
20260904154307 57 341 6.0 13.0 0.04 0.09 0.09 84 1008.4
20260904153806 58 21 5.0 14.0 0.04 0.09 0.09 84 1008.6
20260904153307 58 1 6.0 14.0 0.03 0.09 0.09 83 1008.9
20260904152806 58 250 6.0 15.0 0.02 0.08 0.08 82 1009.1
20260904152307 58 65 4.0 10.0 0.01 0.07 0.07 82 1009.5
20260904151806 58 340 4.0 10.0 0.00 0.06 0.06 81 1009.4
20260904150308 58 292 6.0 14.0 0.00 0.06 0.06 81 1009.6
20260904145307 58 291 4.0 14.0 0.01 0.06 0.06 80 1009.6
20260904144807 58 338 4.0 13.0 0.02 0.06 0.06 80 1009.4
20260904143806 58 269 6.0 14.0 0.03 0.06 0.06 80 1009.4
20260904143307 58 0 6.0 12.0 0.03 0.06 0.06 82 1009.6
20260904142807 58 0 4.0 12.0 0.03 0.06 0.06 83 1009.8
20260904142309 57 315 5.0 9.0 0.03 0.06 0.06 83 1009.8
20260904141307 57 338 4.0 13.0 0.03 0.06 0.06 85 1010.0
20260904140806 57 318 3.0 10.0 0.03 0.06 0.06 85 1009.9
20260904140306 58 315 3.0 9.0 0.03 0.06 0.06 84 1010.1
20260904135807 58 277 2.0 7.0 0.02 0.05 0.05 83 1010.3
20260904135307 58 19 2.0 6.0 0.02 0.05 0.05 82 1010.3
20260904134807 59 316 3.0 9.0 0.01 0.04 0.04 80 1010.1
20260904134306 58 317 3.0 8.0 0.00 0.03 0.03 79 1010.5
20260904133806 58 274 3.0 9.0 0.00 0.03 0.03 79 1010.7
20260904133306 58 20 3.0 9.0 0.00 0.03 0.03 79 1010.9
20260904132807 59 159 3.0 9.0 0.00 0.03 0.03 78 1010.6
20260904132308 59 312 4.0 8.0 0.00 0.03 0.03 78 1010.8
20260904131807 59 0 5.0 13.0 0.00 0.03 0.03 78 1010.7
20260904131306 59 249 4.0 12.0 0.00 0.03 0.03 78 1010.6
20260904130806 59 43 5.0 15.0 0.00 0.03 0.03 78 1010.9
20260904130307 58 317 5.0 12.0 0.00 0.03 0.03 78 1011.1
20260904125306 58 41 5.0 9.0 0.00 0.03 0.03 79 1011.3
20260904124806 58 1 4.0 7.0 0.00 0.03 0.03 79 1011.3
20260904123307 58 67 5.0 10.0 0.01 0.03 0.03 80 1011.4
20260904122809 58 43 5.0 10.0 0.01 0.03 0.03 80 1011.5
20260904122307 58 337 6.0 10.0 0.01 0.03 0.03 80 1011.7
20260904121806 58 3 6.0 13.0 0.01 0.03 0.03 80 1011.9
20260904120806 58 2 1.0 6.0 0.01 0.03 0.03 80 1011.9
20260904120306 57 316 3.0 8.0 0.01 0.03 0.03 80 1012.0
20260904115307 57 338 5.0 9.0 0.01 0.03 0.03 81 1011.7
20260904114806 57 317 3.0 7.0 0.01 0.03 0.03 81 1011.8
20260904113806 58 336 5.0 13.0 0.00 0.02 0.02 77 1012.6
20260904113307 58 44 3.0 8.0 0.00 0.02 0.02 75 1012.8
20260904112807 59 335 3.0 8.0 0.00 0.02 0.02 73 1012.7
20260904112306 59 317 4.0 9.0 0.00 0.02 0.02 72 1013.0
20260904111806 58 25 5.0 10.0 0.01 0.02 0.02 72 1012.9
20260904111307 58 341 3.0 8.0 0.01 0.02 0.02 73 1013.1
20260904110807 58 337 2.0 9.0 0.01 0.02 0.02 73 1013.0
20260904110307 58 357 5.0 12.0 0.02 0.02 0.02 73 1013.0
20260904105808 58 0 6.0 10.0 0.02 0.02 0.02 73 1013.2
20260904105307 58 41 5.0 9.0 0.02 0.02 0.02 74 1013.2
20260904104307 58 0 3.0 12.0 0.02 0.02 0.02 75 1013.1
20260904103807 57 42 5.0 10.0 0.02 0.02 0.02 76 1013.1
20260904102807 57 314 3.0 12.0 0.02 0.02 0.02 76 1013.2
20260904102307 57 43 3.0 6.0 0.02 0.02 0.02 78 1013.2
20260904101806 57 297 3.0 8.0 0.01 0.01 0.01 76 1013.5
20260904101309 58 272 3.0 8.0 0.01 0.01 0.01 75 1013.4
20260904100307 58 110 5.0 9.0 0.00 0.00 0.00 72 1013.3
20260904095808 58 0 5.0 7.0 0.00 0.00 0.00 74 1013.0
20260904095306 58 314 3.0 7.0 0.00 0.00 0.00 75 1013.3
20260904094806 58 23 1.0 6.0 0.00 0.00 0.00 74 1013.1
20260904094307 58 4 3.0 9.0 0.00 0.00 0.00 73 1013.3
20260904093307 59 337 3.0 8.0 0.00 0.00 0.00 69 1013.6
20260904092807 59 339 3.0 7.0 0.00 0.00 0.00 68 1013.6
20260904092307 58 358 2.0 6.0 0.00 0.00 0.00 68 1013.6
20260904091806 58 16 2.0 7.0 0.00 0.00 0.00 68 1013.5
20260904091306 58 22 3.0 7.0 0.00 0.00 0.00 68 1013.5
20260904090807 58 0 2.0 5.0 0.00 0.00 0.00 67 1013.7
20260904090307 58 315 3.0 6.0 0.00 0.00 0.00 67 1013.5
20260904085807 58 19 1.0 5.0 0.00 0.00 0.00 67 1013.6
20260904085307 58 339 3.0 7.0 0.00 0.00 0.00 67 1013.5
20260904084807 58 0 3.0 7.0 0.00 0.00 0.00 66 1013.5
20260904084307 58 22 3.0 6.0 0.00 0.00 0.00 66 1013.7
20260904083807 58 350 2.0 7.0 0.00 0.00 0.00 66 1013.8
20260904083307 58 318 3.0 7.0 0.00 0.00 0.00 66 1013.5
20260904082807 58 356 2.0 6.0 0.00 0.00 0.00 66 1013.4
20260904082307 58 23 3.0 6.0 0.00 0.00 0.00 65 1013.8
20260904081807 58 315 1.0 7.0 0.00 0.00 0.00 65 1013.6
20260904080807 59 1 2.0 7.0 0.00 0.00 0.00 64 1013.8
20260904080307 59 65 2.0 6.0 0.00 0.00 0.00 64 1013.7
20260904075307 60 19 3.0 6.0 0.00 0.00 0.00 63 1014.0
20260904074307 60 21 3.0 6.0 0.00 0.00 0.00 62 1014.2
20260904073806 60 276 1.0 7.0 0.00 0.00 0.00 62 1014.1
20260904073306 60 358 3.0 7.0 0.00 0.00 0.00 61 1014.2
20260904072807 60 317 3.0 7.0 0.00 0.00 0.00 61 1014.4
20260904072308 60 21 3.0 6.0 0.00 0.00 0.00 60 1014.3
20260904071806 61 359 3.0 7.0 0.00 0.00 0.00 60 1014.4
20260904071306 61 357 3.0 9.0 0.00 0.00 0.00 60 1014.3
20260904070806 61 1 5.0 10.0 0.00 0.00 0.00 59 1014.3
20260904070307 61 291 5.0 10.0 0.00 0.00 0.00 59 1014.4
20260904065806 61 116 2.0 9.0 0.00 0.00 0.00 60 1014.6
20260904065307 61 318 3.0 8.0 0.00 0.00 0.00 59 1014.6
20260904064806 61 339 3.0 9.0 0.00 0.00 0.00 58 1014.6
20260904064308 61 315 3.0 12.0 0.00 0.00 0.00 57 1014.6
20260904063806 61 269 5.0 13.0 0.00 0.00 0.00 57 1014.8
20260904063307 62 336 4.0 10.0 0.00 0.00 0.00 57 1014.9
20260904062807 62 314 5.0 12.0 0.00 0.00 0.00 56 1014.8
20260904061807 62 290 2.0 7.0 0.00 0.00 0.00 56 1014.8
20260904061307 63 290 4.0 8.0 0.00 0.00 0.00 56 1015.0
20260904060807 63 313 4.0 9.0 0.00 0.00 0.00 55 1015.0
20260904060306 63 179 3.0 8.0 0.00 0.00 0.00 55 1015.0
20260904055808 64 337 3.0 7.0 0.00 0.00 0.00 55 1015.1
20260904055307 64 290 2.0 7.0 0.00 0.00 0.00 54 1015.0
20260904054806 64 274 3.0 7.0 0.00 0.00 0.00 54 1015.1
20260904054307 64 293 2.0 6.0 0.00 0.00 0.00 54 1015.5
20260904053806 64 269 2.0 8.0 0.00 0.00 0.00 53 1015.2
20260904052807 64 293 1.0 5.0 0.00 0.00 0.00 53 1015.3
20260904052308 63 314 1.0 3.0 0.00 0.00 0.00 53 1015.4
20260904051807 64 0 1.0 10.0 0.00 0.00 0.00 53 1015.5
20260904051307 64 359 5.0 10.0 0.00 0.00 0.00 51 1015.6
20260904050809 64 341 4.0 9.0 0.00 0.00 0.00 51 1015.8
20260904050307 65 67 4.0 12.0 0.00 0.00 0.00 50 1015.6
20260904045808 64 65 3.0 6.0 0.00 0.00 0.00 51 1015.6
20260904045307 65 294 3.0 6.0 0.00 0.00 0.00 50 1015.4
20260904044806 64 335 2.0 8.0 0.00 0.00 0.00 50 1015.4
20260904044308 64 43 1.0 7.0 0.00 0.00 0.00 51 1015.7
20260904043307 65 21 2.0 5.0 0.00 0.00 0.00 49 1015.8
20260904042807 65 42 2.0 6.0 0.00 0.00 0.00 48 1015.5
20260904042306 66 247 2.0 6.0 0.00 0.00 0.00 48 1015.8
20260904041807 67 252 2.0 5.0 0.00 0.00 0.00 46 1015.8
20260904040306 66 90 3.0 7.0 0.00 0.00 0.00 46 1015.7
20260904034806 65 89 5.0 14.0 0.00 0.00 0.00 47 1015.9
20260904033808 65 44 2.0 6.0 0.00 0.00 0.00 47 1016.0
20260904033307 65 92 2.0 7.0 0.00 0.00 0.00 48 1016.1
20260904032308 66 42 2.0 5.0 0.00 0.00 0.00 46 1016.5
20260904031806 64 291 1.0 6.0 0.00 0.00 0.00 47 1016.4
20260904030807 66 311 2.0 10.0 0.00 0.00 0.00 45 1016.6
20260904030308 66 294 3.0 7.0 0.00 0.00 0.00 45 1016.6
20260904025307 64 19 2.0 6.0 0.00 0.00 0.00 46 1016.7
20260904024807 64 292 2.0 6.0 0.00 0.00 0.00 47 1017.0
20260904024307 63 86 2.0 7.0 0.00 0.00 0.00 48 1017.0
20260904023808 64 357 3.0 7.0 0.00 0.00 0.00 46 1017.1
20260904023307 64 312 2.0 10.0 0.00 0.00 0.00 46 1017.1
20260904022806 63 359 3.0 7.0 0.00 0.00 0.00 47 1017.1
20260904022306 62 338 3.0 8.0 0.00 0.00 0.00 48 1017.2
20260904021807 62 337 2.0 7.0 0.00 0.00 0.00 48 1017.5
20260904021306 63 250 2.0 7.0 0.00 0.00 0.00 47 1017.5
20260904020307 63 314 3.0 7.0 0.00 0.00 0.00 45 1017.7
20260904015307 63 252 1.0 5.0 0.00 0.00 0.00 45 1018.1
20260904014806 63 246 2.0 6.0 0.00 0.00 0.00 44 1018.1
20260904014307 63 269 1.0 10.0 0.00 0.00 0.00 44 1018.4
20260904013806 63 314 2.0 7.0 0.00 0.01 0.00 44 1018.3
20260904012806 62 290 2.0 9.0 0.00 0.03 0.00 45 1018.3
20260904012306 62 267 3.0 6.0 0.00 0.03 0.00 44 1018.4
20260904011807 62 246 2.0 6.0 0.00 0.03 0.00 44 1018.3
20260904011307 62 340 3.0 6.0 0.00 0.03 0.00 44 1018.3
20260904010308 61 277 2.0 7.0 0.00 0.03 0.00 47 1018.3
20260904005307 61 275 2.0 5.0 0.00 0.03 0.00 47 1018.7
20260904004806 60 47 2.0 7.0 0.00 0.03 0.00 47 1019.0
20260904004307 61 315 2.0 6.0 0.00 0.03 0.00 47 1019.2
20260904003808 60 268 1.0 8.0 0.00 0.03 0.00 48 1019.1
20260904003306 61 289 1.0 5.0 0.00 0.03 0.00 47 1019.3
20260904002806 61 315 2.0 6.0 0.00 0.03 0.00 46 1019.5
20260904002307 61 359 3.0 8.0 0.00 0.03 0.00 47 1019.4
20260904001806 61 250 3.0 7.0 0.00 0.03 0.00 48 1019.6
20260904001308 60 339 2.0 7.0 0.00 0.03 0.00 49 1019.4
20260904000806 60 90 3.0 8.0 0.00 0.03 0.00 49 1019.5
20260904000307 60 335 3.0 8.0 0.00 0.03 0.00 50 1019.6
20260903235808 59 358 4.0 9.0 0.00 0.03 0.00 50 1019.7
20260903235307 60 338 3.0 7.0 0.00 0.03 0.00 50 1019.7
20260903234807 59 21 2.0 6.0 0.00 0.03 0.00 51 1019.6
20260903234307 59 339 3.0 6.0 0.00 0.03 0.00 51 1019.5
20260903233806 59 335 2.0 6.0 0.00 0.03 0.00 51 1019.6
20260903233308 59 316 2.0 7.0 0.00 0.03 0.00 53 1019.8
20260903232807 58 235 2.0 7.0 0.00 0.03 0.00 55 1019.5
20260903231807 57 250 2.0 6.0 0.00 0.03 0.00 57 1020.1
20260903231307 58 22 1.0 5.0 0.00 0.03 0.00 58 1020.3
20260903230307 56 359 2.0 6.0 0.00 0.03 0.00 59 1020.0
20260903225806 56 336 2.0 6.0 0.00 0.03 0.03 59 1020.2
20260903225307 56 155 1.0 5.0 0.00 0.03 0.03 61 1020.0
20260903224806 55 114 2.0 3.0 0.00 0.03 0.03 63 1020.2
20260903223806 54 299 1.0 5.0 0.00 0.03 0.03 65 1020.0
20260903223306 54 326 2.0 5.0 0.00 0.03 0.03 65 1020.3
20260903222806 53 293 1.0 3.0 0.00 0.03 0.03 66 1020.3
20260903222307 52 316 1.0 2.0 0.00 0.03 0.03 67 1020.2
20260903221807 51 291 1.0 3.0 0.00 0.03 0.03 68 1020.2
20260903220806 50 316 1.0 5.0 0.00 0.03 0.03 70 1020.0
20260903220308 49 337 1.0 2.0 0.00 0.03 0.03 72 1019.7
20260903215807 48 342 1.0 2.0 0.00 0.03 0.03 72 1019.7
20260903215306 48 324 2.0 5.0 0.00 0.03 0.03 73 1019.8
20260903214806 47 204 1.0 3.0 0.00 0.03 0.03 74 1019.8
20260903214307 46 299 1.0 3.0 0.00 0.03 0.03 75 1019.4
20260903213307 44 312 1.0 3.0 0.00 0.03 0.03 79 1019.4
20260903212808 44 320 1.0 3.0 0.00 0.03 0.03 80 1019.3
20260903212307 44 250 1.0 2.0 0.00 0.03 0.03 80 1019.3